Mobile Site You Are Here >  >  >  > L.J. Mazzilli 2014 Minor League Gamelogs & Splits


L.J. Mazzilli

Lee Louis Mazzilli

Positions: Second Baseman, Designated Hitter and Shortstop
Bats: Right, Throws: Right
Height: 6' 1", Weight: 190 lb.

Born: September 6, 1990 in Greenwich, Connecticut, US
High School: The Pendleton School (Bradenton, FL)
School: University of Connecticut (Storrs, CT)

Drafted by the Minnesota Twins in the 9th round of the 2012 MLB June Amateur Draft from University of Connecticut (Storrs, CT) and the New York Mets in the 4th round of the 2013 MLB June Amateur Draft from University of Connecticut (Storrs, CT).

L.J. Mazzilli
/ Gamelogs & Splits
 Batting: 2014 / 2013

2014 Player Batting Gamelog

Rk Date Lev Tm   Opp PA AB R H 2B 3B HR RBI BB IBB SO HBP SH SF GDP SB CS Pos E
1 2014-04-03 A-SALL Savannah Sand Gnats Lakewood BlueClaws 4 4 0 0 0 0 0 0 0 0 1 0 0 0 0 0 0 2B 0
2 2014-04-04 A-SALL Savannah Sand Gnats Lakewood BlueClaws 4 3 0 0 0 0 0 1 0 0 1 0 0 1 0 0 0 2B 0
3 2014-04-05 A-SALL Savannah Sand Gnats Lakewood BlueClaws 4 4 0 2 0 0 0 0 0 0 1 0 0 0 0 0 0 2B 0
4 2014-04-08 A-SALL Savannah Sand Gnats Augusta GreenJackets 4 3 0 1 0 0 0 1 1 0 1 0 0 0 0 0 0 2B 1
5 2014-04-08 (2) A-SALL Savannah Sand Gnats Augusta GreenJackets 3 3 0 1 0 0 0 2 0 0 0 0 0 0 1 0 0 2B 0
6 2014-04-09 A-SALL Savannah Sand Gnats Augusta GreenJackets 4 4 0 1 0 0 0 2 0 0 1 0 0 0 0 0 0 2B 0
7 2014-04-10 A-SALL Savannah Sand Gnats @ Rome Braves 6 5 1 1 1 0 0 1 0 0 1 0 0 1 0 0 0 0
8 2014-04-11 A-SALL Savannah Sand Gnats @ Rome Braves 4 3 1 0 0 0 0 0 1 0 1 0 0 0 0 0 0 2B 1
9 2014-04-12 A-SALL Savannah Sand Gnats @ Rome Braves 5 5 0 2 0 0 0 1 0 0 0 0 0 0 0 0 0 SS 0
10 2014-04-13 A-SALL Savannah Sand Gnats @ Rome Braves 5 4 0 1 0 0 0 0 1 0 0 0 0 0 0 0 0 2B 0
11 2014-04-14 A-SALL Savannah Sand Gnats @ Augusta GreenJackets 4 4 0 1 1 0 0 1 0 0 2 0 0 0 0 0 0 2B 0
12 2014-04-16 A-SALL Savannah Sand Gnats @ Augusta GreenJackets 4 3 0 0 0 0 0 0 1 0 0 0 0 0 0 0 0 2B 0
13 2014-04-17 A-SALL Savannah Sand Gnats Greenville Drive 4 4 0 0 0 0 0 0 0 0 1 0 0 0 0 0 0 2B 1
14 2014-04-19 A-SALL Savannah Sand Gnats Greenville Drive 5 5 1 2 0 0 0 1 0 0 0 0 0 0 0 1 0 2B 0
15 2014-04-21 A-SALL Savannah Sand Gnats @ Delmarva Shorebirds 6 6 0 2 0 0 0 2 0 0 0 0 0 0 0 0 0 2B 1
16 2014-04-22 A-SALL Savannah Sand Gnats @ Delmarva Shorebirds 5 5 0 2 0 0 0 0 0 0 1 0 0 0 1 1 0 2B 0
17 2014-04-23 A-SALL Savannah Sand Gnats @ Delmarva Shorebirds 4 4 0 0 0 0 0 0 0 0 0 0 0 0 0 0 0 2B 1
18 2014-04-24 A-SALL Savannah Sand Gnats @ Lakewood BlueClaws 5 5 1 1 0 0 0 1 0 0 1 0 0 0 1 0 0 2B 0
19 2014-04-25 A-SALL Savannah Sand Gnats @ Lakewood BlueClaws 3 2 1 1 0 0 1 2 1 0 0 0 0 0 0 0 0 2B 0
20 2014-04-25 (2) A-SALL Savannah Sand Gnats @ Lakewood BlueClaws 5 4 2 1 0 0 0 0 1 0 0 0 0 0 0 0 0 0
21 2014-04-26 A-SALL Savannah Sand Gnats @ Lakewood BlueClaws 4 4 0 0 0 0 0 0 0 0 0 0 0 0 0 0 0 SS 0
22 2014-04-27 A-SALL Savannah Sand Gnats @ Lakewood BlueClaws 4 3 1 2 0 1 0 2 1 0 0 0 0 0 0 0 1 2B 0
23 2014-04-29 A-SALL Savannah Sand Gnats Delmarva Shorebirds 4 4 1 1 0 0 0 0 0 0 2 0 0 0 0 1 0 2B 0
24 2014-04-30 A-SALL Savannah Sand Gnats Delmarva Shorebirds 4 4 0 0 0 0 0 0 0 0 1 0 0 0 0 0 0 2B 0
25 2014-05-01 A-SALL Savannah Sand Gnats Delmarva Shorebirds 4 4 2 2 0 0 1 3 0 0 0 0 0 0 0 0 0 2B 0
26 2014-05-02 A-SALL Savannah Sand Gnats Rome Braves 4 3 0 0 0 0 0 0 1 0 0 0 0 0 0 0 0 2B 0
27 2014-05-03 A-SALL Savannah Sand Gnats Rome Braves 5 5 1 1 0 0 0 1 0 0 1 0 0 0 0 0 0 2B 0
28 2014-05-04 A-SALL Savannah Sand Gnats Rome Braves 5 3 1 0 0 0 0 1 1 0 1 0 0 1 0 0 0 2B,SS 0
29 2014-05-05 A-SALL Savannah Sand Gnats Rome Braves 4 3 0 0 0 0 0 0 1 0 3 0 0 0 0 0 0 2B 0
30 2014-05-07 A-SALL Savannah Sand Gnats @ West Virginia Power 5 5 1 1 0 0 0 0 0 0 2 0 0 0 0 0 0 2B 0
31 2014-05-08 A-SALL Savannah Sand Gnats @ West Virginia Power 5 3 1 1 0 0 0 1 2 0 1 0 0 0 0 1 0 SS 2
32 2014-05-09 A-SALL Savannah Sand Gnats @ West Virginia Power 4 4 1 1 0 0 0 1 0 0 1 0 0 0 0 0 0 SS 0
33 2014-05-10 A-SALL Savannah Sand Gnats @ Charleston RiverDogs 4 3 0 2 0 0 0 0 1 0 0 0 0 0 0 0 0 2B 0
34 2014-05-11 A-SALL Savannah Sand Gnats @ Charleston RiverDogs 4 3 0 0 0 0 0 0 1 0 1 0 0 0 0 0 0 2B 0
35 2014-05-12 A-SALL Savannah Sand Gnats @ Charleston RiverDogs 4 4 0 0 0 0 0 0 0 0 2 0 0 0 0 0 0 2B 0
36 2014-05-13 A-SALL Savannah Sand Gnats @ Charleston RiverDogs 5 3 2 1 1 0 0 0 2 0 0 0 0 0 0 0 0 0
37 2014-05-14 A-SALL Savannah Sand Gnats Greenville Drive 4 4 1 1 1 0 0 0 0 0 0 0 0 0 0 0 0 2B 1
38 2014-05-16 A-SALL Savannah Sand Gnats Greenville Drive 4 2 1 1 0 0 0 1 2 0 0 0 0 0 0 0 0 2B 0
39 2014-05-16 (2) A-SALL Savannah Sand Gnats Greenville Drive 3 3 0 2 1 0 0 1 0 0 1 0 0 0 0 1 0 SS 0
40 2014-05-17 A-SALL Savannah Sand Gnats Charleston RiverDogs 5 5 0 3 0 0 0 0 0 0 1 0 0 0 0 0 0 2B 0
41 2014-05-18 A-SALL Savannah Sand Gnats Charleston RiverDogs 4 3 1 0 0 0 0 0 1 0 0 0 0 0 1 0 0 SS 2
42 2014-05-19 A-SALL Savannah Sand Gnats Charleston RiverDogs 4 2 1 2 0 0 1 1 2 0 0 0 0 0 0 0 0 SS 0
43 2014-05-20 A-SALL Savannah Sand Gnats Charleston RiverDogs 4 4 1 1 1 0 0 1 0 0 1 0 0 0 0 0 0 SS 0
44 2014-05-22 A-SALL Savannah Sand Gnats @ Lexington Legends 4 4 2 2 0 0 1 1 0 0 0 0 0 0 0 1 0 SS 0
45 2014-05-23 A-SALL Savannah Sand Gnats @ Lexington Legends 6 5 0 2 0 0 0 1 1 0 2 0 0 0 0 0 0 2B 0
46 2014-05-24 A-SALL Savannah Sand Gnats @ Lexington Legends 5 3 2 1 0 0 1 1 1 0 0 1 0 0 0 0 0 2B 0
47 2014-05-25 A-SALL Savannah Sand Gnats @ Lexington Legends 5 4 1 1 0 0 0 1 0 0 1 0 0 1 0 0 0 2B 0
48 2014-05-26 A-SALL Savannah Sand Gnats @ Augusta GreenJackets 4 4 0 1 0 1 0 1 0 0 0 0 0 0 0 0 0 0
49 2014-05-29 A-SALL Savannah Sand Gnats Rome Braves 6 5 0 3 0 0 0 1 1 0 1 0 0 0 1 0 0 2B 0
50 2014-05-30 A-SALL Savannah Sand Gnats Rome Braves 5 4 1 2 0 0 0 0 1 0 0 0 0 0 0 1 0 2B 0
51 2014-05-31 A-SALL Savannah Sand Gnats Rome Braves 4 4 1 2 1 0 0 0 0 0 2 0 0 0 0 0 0 2B 0
52 2014-06-01 A-SALL Savannah Sand Gnats Rome Braves 4 4 1 3 0 0 1 1 0 0 0 0 0 0 0 0 0 2B 0
53 2014-06-02 A-SALL Savannah Sand Gnats Asheville Tourists 5 4 0 1 0 0 0 0 1 0 2 0 0 0 0 0 0 2B 1
54 2014-06-03 A-SALL Savannah Sand Gnats Asheville Tourists 4 4 1 0 0 0 0 0 0 0 0 0 0 0 0 1 0 0
55 2014-06-04 A-SALL Savannah Sand Gnats Asheville Tourists 5 5 0 0 0 0 0 0 0 0 2 0 0 0 0 0 0 2B 0
56 2014-06-05 A-SALL Savannah Sand Gnats @ Charleston RiverDogs 4 4 0 3 1 0 0 1 0 0 1 0 0 0 0 1 0 2B 0
57 2014-06-06 A-SALL Savannah Sand Gnats @ Charleston RiverDogs 5 5 1 2 0 0 1 2 0 0 2 0 0 0 0 0 0 2B 0
58 2014-06-07 A-SALL Savannah Sand Gnats @ Charleston RiverDogs 5 4 0 3 0 0 0 2 1 0 0 0 0 0 0 1 0 2B 0
59 2014-06-08 A-SALL Savannah Sand Gnats @ Charleston RiverDogs 5 5 3 3 1 0 0 2 0 0 0 0 0 0 0 1 0 2B 0
60 2014-06-09 A-SALL Savannah Sand Gnats @ Kannapolis Intimidators 5 4 0 1 0 0 0 1 1 0 0 0 0 0 0 0 0 2B 0
61 2014-06-10 A-SALL Savannah Sand Gnats @ Kannapolis Intimidators 4 4 1 1 0 0 0 0 0 0 2 0 0 0 0 0 0 2B 0
62 2014-06-12 A-SALL Savannah Sand Gnats Augusta GreenJackets 4 3 1 0 0 0 0 0 1 0 0 0 0 0 1 0 0 2B,SS 0
63 2014-06-12 (2) A-SALL Savannah Sand Gnats Augusta GreenJackets 4 4 1 1 0 0 0 2 0 0 2 0 0 0 0 0 0 SS 0
64 2014-06-13 A-SALL Savannah Sand Gnats Augusta GreenJackets 4 4 0 0 0 0 0 0 0 0 1 0 0 0 0 0 0 SS 0
65 2014-06-15 A-SALL Savannah Sand Gnats Augusta GreenJackets 2 2 0 0 0 0 0 0 0 0 0 0 0 0 0 0 0 2B 0
Player Moved from A-SALL to A+-FLOR
66 2014-06-19 A+-FLOR St. Lucie Mets Fort Myers Miracle 4 4 1 1 0 0 1 3 0 0 1 0 0 0 0 0 0 2B 0
67 2014-06-21 A+-FLOR St. Lucie Mets Fort Myers Miracle 3 3 0 1 0 0 0 0 0 0 1 0 0 0 0 0 0 2B 0
68 2014-06-21 (2) A+-FLOR St. Lucie Mets Fort Myers Miracle 3 2 0 0 0 0 0 0 1 0 0 0 0 0 0 0 0 0
69 2014-06-22 A+-FLOR St. Lucie Mets @ Jupiter Hammerheads 5 5 1 2 2 0 0 2 0 0 0 0 0 0 1 0 0 2B 1
70 2014-06-23 A+-FLOR St. Lucie Mets @ Jupiter Hammerheads 4 4 1 1 0 0 0 0 0 0 0 0 0 0 0 0 0 2B 0
71 2014-06-24 A+-FLOR St. Lucie Mets @ Jupiter Hammerheads 5 3 1 1 0 0 1 1 1 0 1 1 0 0 0 0 0 2B 0
72 2014-06-25 A+-FLOR St. Lucie Mets @ Fort Myers Miracle 5 5 1 2 1 0 0 0 0 0 1 0 0 0 0 0 0 2B 1
73 2014-06-26 A+-FLOR St. Lucie Mets @ Fort Myers Miracle 5 4 1 2 1 0 0 0 1 0 0 0 0 0 0 0 0 2B 0
74 2014-06-28 A+-FLOR St. Lucie Mets Bradenton Marauders 4 4 0 2 0 0 0 0 0 0 0 0 0 0 0 0 0 2B 0
75 2014-06-29 A+-FLOR St. Lucie Mets Bradenton Marauders 4 4 0 1 0 0 0 0 0 0 1 0 0 0 0 0 0 2B 0
76 2014-06-30 A+-FLOR St. Lucie Mets Bradenton Marauders 4 3 0 1 0 0 0 1 1 0 0 0 0 0 0 1 1 0
77 2014-07-01 A+-FLOR St. Lucie Mets @ Charlotte Stone Crabs 5 5 0 0 0 0 0 0 0 0 1 0 0 0 1 0 0 2B 0
78 2014-07-02 A+-FLOR St. Lucie Mets @ Charlotte Stone Crabs 5 5 1 1 1 0 0 2 0 0 1 0 0 0 0 0 0 2B 0
79 2014-07-03 A+-FLOR St. Lucie Mets @ Charlotte Stone Crabs 5 5 2 2 1 0 0 0 0 0 2 0 0 0 0 0 0 2B 0
80 2014-07-04 A+-FLOR St. Lucie Mets Jupiter Hammerheads 4 4 0 1 0 0 0 0 0 0 1 0 0 0 0 0 0 0
81 2014-07-05 A+-FLOR St. Lucie Mets Jupiter Hammerheads 5 4 1 2 1 0 0 0 1 0 0 0 0 0 0 0 0 2B 1
82 2014-07-08 A+-FLOR St. Lucie Mets @ Bradenton Marauders 5 5 0 1 1 0 0 0 0 0 1 0 0 0 0 0 0 2B 0
83 2014-07-09 A+-FLOR St. Lucie Mets @ Bradenton Marauders 4 4 0 1 0 0 0 0 0 0 0 0 0 0 1 0 0 2B 0
84 2014-07-10 A+-FLOR St. Lucie Mets @ Bradenton Marauders 4 4 0 2 0 0 0 1 0 0 0 0 0 0 0 0 0 0
85 2014-07-11 A+-FLOR St. Lucie Mets Lakeland Flying Tigers 5 4 1 1 0 1 0 2 0 0 0 0 0 1 0 0 0 2B 0
86 2014-07-12 A+-FLOR St. Lucie Mets Lakeland Flying Tigers 5 3 1 1 1 0 0 0 2 0 1 0 0 0 0 0 0 2B 0
87 2014-07-14 A+-FLOR St. Lucie Mets Lakeland Flying Tigers 3 3 0 0 0 0 0 0 0 0 0 0 0 0 0 0 0 0
88 2014-07-14 (2) A+-FLOR St. Lucie Mets Lakeland Flying Tigers 4 4 0 1 0 0 0 1 0 0 1 0 0 0 0 0 0 2B 1
89 2014-07-17 A+-FLOR St. Lucie Mets Brevard County Manatees 3 3 0 0 0 0 0 0 0 0 0 0 0 0 1 0 0 2B 0
90 2014-07-18 A+-FLOR St. Lucie Mets @ Brevard County Manatees 5 5 0 0 0 0 0 0 0 0 0 0 0 0 0 0 0 2B 0
91 2014-07-19 A+-FLOR St. Lucie Mets @ Brevard County Manatees 4 4 0 0 0 0 0 0 0 0 1 0 0 0 1 0 0 2B 0
92 2014-07-20 A+-FLOR St. Lucie Mets @ Tampa Yankees 4 3 1 1 0 0 1 1 1 0 1 0 0 0 0 0 0 2B 0
93 2014-07-21 A+-FLOR St. Lucie Mets @ Tampa Yankees 4 4 0 2 1 0 0 0 0 0 0 0 0 0 0 0 0 2B 0
94 2014-07-22 A+-FLOR St. Lucie Mets @ Tampa Yankees 4 2 1 0 0 0 0 0 1 0 0 1 0 0 0 0 0 2B 0
95 2014-07-23 A+-FLOR St. Lucie Mets @ Tampa Yankees 5 5 1 2 0 0 0 0 0 0 0 0 0 0 1 0 0 2B 1
96 2014-07-26 A+-FLOR St. Lucie Mets @ Daytona Cubs 4 4 1 2 2 0 0 1 0 0 1 0 0 0 0 0 0 2B 0
97 2014-07-26 (2) A+-FLOR St. Lucie Mets @ Daytona Cubs 3 3 1 1 0 0 0 0 0 0 2 0 0 0 0 0 0 0
98 2014-07-27 A+-FLOR St. Lucie Mets @ Daytona Cubs 3 2 0 0 0 0 0 0 1 0 0 0 0 0 0 0 0 2B 0
99 2014-07-27 (2) A+-FLOR St. Lucie Mets @ Daytona Cubs 4 3 2 2 0 0 0 1 1 0 0 0 0 0 0 0 0 2B 0
100 2014-07-28 A+-FLOR St. Lucie Mets Dunedin Blue Jays 6 6 0 1 0 0 0 1 0 0 0 0 0 0 0 0 1 2B 0
101 2014-07-30 A+-FLOR St. Lucie Mets Dunedin Blue Jays 4 4 0 2 0 0 0 0 0 0 0 0 0 0 0 0 0 2B 0
102 2014-08-01 A+-FLOR St. Lucie Mets @ Clearwater Threshers 5 5 0 0 0 0 0 1 0 0 1 0 0 0 0 0 0 2B 1
103 2014-08-04 A+-FLOR St. Lucie Mets @ Clearwater Threshers 5 4 2 2 1 0 0 2 1 0 0 0 0 0 0 0 0 2B 0
104 2014-08-06 A+-FLOR St. Lucie Mets Fort Myers Miracle 5 5 0 2 0 0 0 1 0 0 2 0 0 0 0 0 0 2B 0
105 2014-08-07 A+-FLOR St. Lucie Mets Fort Myers Miracle 4 4 0 0 0 0 0 0 0 0 2 0 0 0 0 0 0 2B 0
106 2014-08-08 A+-FLOR St. Lucie Mets Fort Myers Miracle 4 2 0 1 0 0 0 0 2 0 0 0 0 0 0 0 0 0
107 2014-08-09 A+-FLOR St. Lucie Mets Bradenton Marauders 4 4 1 2 1 0 0 0 0 0 0 0 0 0 0 0 0 2B 0
108 2014-08-10 A+-FLOR St. Lucie Mets Bradenton Marauders 4 4 0 0 0 0 0 0 0 0 0 0 0 0 0 0 0 2B 0
109 2014-08-11 A+-FLOR St. Lucie Mets Bradenton Marauders 4 3 1 1 1 0 0 2 1 0 0 0 0 0 0 0 0 2B 1
110 2014-08-12 A+-FLOR St. Lucie Mets @ Fort Myers Miracle 4 4 1 3 0 0 0 2 0 0 1 0 0 0 0 0 0 0
111 2014-08-13 A+-FLOR St. Lucie Mets @ Fort Myers Miracle 4 3 0 0 0 0 0 1 0 0 0 0 0 1 0 0 0 2B 0
112 2014-08-13 (2) A+-FLOR St. Lucie Mets @ Fort Myers Miracle 4 4 0 1 0 0 0 0 0 0 0 0 0 0 0 0 0 2B 0
113 2014-08-14 A+-FLOR St. Lucie Mets @ Fort Myers Miracle 5 5 1 2 1 0 0 1 0 0 0 0 0 0 0 0 0 0
114 2014-08-15 A+-FLOR St. Lucie Mets @ Bradenton Marauders 5 4 2 2 1 0 1 1 0 0 0 1 0 0 0 0 0 2B 2
115 2014-08-17 A+-FLOR St. Lucie Mets @ Bradenton Marauders 3 3 0 2 0 0 0 0 0 0 0 0 0 0 0 1 1 2B 0
116 2014-08-18 A+-FLOR St. Lucie Mets @ Charlotte Stone Crabs 4 4 1 1 1 0 0 1 0 0 1 0 0 0 0 0 0 2B 0
117 2014-08-19 A+-FLOR St. Lucie Mets @ Charlotte Stone Crabs 5 5 2 2 0 0 0 0 0 0 0 0 0 0 0 0 0 2B 0
118 2014-08-20 A+-FLOR St. Lucie Mets @ Charlotte Stone Crabs 4 4 1 2 0 1 0 2 0 0 1 0 0 0 0 0 0 0
119 2014-08-22 A+-FLOR St. Lucie Mets Jupiter Hammerheads 3 2 0 0 0 0 0 0 1 0 1 0 0 0 0 0 0 2B 0
120 2014-08-22 (2) A+-FLOR St. Lucie Mets Jupiter Hammerheads 4 3 0 0 0 0 0 0 0 0 0 1 0 0 0 0 0 2B 0
121 2014-08-23 A+-FLOR St. Lucie Mets Jupiter Hammerheads 5 5 2 3 0 0 0 0 0 0 0 0 0 0 0 0 0 2B 0
122 2014-08-24 A+-FLOR St. Lucie Mets Jupiter Hammerheads 4 3 1 0 0 0 0 0 0 0 1 1 0 0 0 0 0 0
123 2014-08-25 A+-FLOR St. Lucie Mets Charlotte Stone Crabs 5 5 1 3 0 0 0 0 0 0 0 0 0 0 0 0 0 2B 0
124 2014-08-26 A+-FLOR St. Lucie Mets Charlotte Stone Crabs 4 4 0 0 0 0 0 0 0 0 2 0 0 0 0 0 0 2B 0
125 2014-08-27 A+-FLOR St. Lucie Mets Charlotte Stone Crabs 5 4 0 0 0 0 0 0 0 0 2 0 1 0 0 0 0 2B 1
126 2014-08-28 A+-FLOR St. Lucie Mets @ Palm Beach Cardinals 4 4 1 2 0 0 0 0 0 0 0 0 0 0 0 0 0 2B 1
127 2014-08-29 A+-FLOR St. Lucie Mets @ Palm Beach Cardinals 4 4 1 2 0 0 0 0 0 0 0 0 0 0 0 1 0 2B 0
128 2014-08-30 A+-FLOR St. Lucie Mets Palm Beach Cardinals 6 6 2 2 1 0 0 1 0 0 1 0 0 0 1 0 0 2B 0
129 2014-08-31 A+-FLOR St. Lucie Mets Palm Beach Cardinals 4 4 1 3 1 0 0 2 0 0 0 0 0 0 0 0 0 2B 0
Player Moved from A+-FLOR to AAA-PCL
130 2014-09-01 AAA-PCL Las Vegas 51s @ Albuquerque Isotopes 5 5 0 1 0 0 0 0 0 0 1 0 0 0 0 0 0 2B 0

2014 Player Batting Splits

Split G PA AB R H 2B 3B HR RBI SB CS BB SO BA OBP SLG OPS TB GDP HBP SH SF IBB
Total 130 563 505 79 152 29 4 11 79 14 4 45 82 .301 .361 .440 .801 222 13 6 1 6 0
Last 7 days 1 5 5 0 1 0 0 0 0 0 0 0 1 .200 .200 .200 .400 1 0 0 0 0 0
Last 28 days 1 5 5 0 1 0 0 0 0 0 0 0 1 .200 .200 .200 .400 1 0 0 0 0 0
Last 90 days 31 136 126 21 42 8 1 1 18 2 2 5 16 .333 .370 .437 .807 55 1 3 1 1 0
Home 63 263 235 30 65 10 1 4 34 6 2 22 44 .277 .340 .379 .718 89 6 2 1 3 0
Away 67 300 270 49 87 19 3 7 45 8 2 23 38 .322 .380 .493 .873 133 7 4 0 3 0
vs RHP as RHB 124 412 372 111 23 2 6 54 29 63 .298 .355 .419 .775 156 9 6 1 4 0
vs LHP as RHB 67 151 133 41 6 2 5 25 16 19 .308 .377 .496 .874 66 4 0 0 2 0
April 24 104 95 9 22 2 1 1 17 3 1 7 15 .232 .279 .305 .584 29 3 0 0 2 0
May 27 120 99 21 33 5 1 4 17 4 0 18 21 .333 .433 .525 .959 52 2 1 0 2 0
June 25 106 97 15 32 6 0 4 18 5 1 8 17 .330 .387 .515 .902 50 2 1 0 0 0
July 25 107 98 13 26 8 1 1 10 0 1 7 13 .265 .318 .398 .716 39 5 1 0 1 0
August 28 121 111 21 38 8 1 1 17 2 1 5 15 .342 .383 .459 .843 51 1 3 1 1 0
September 1 5 5 0 1 0 0 0 0 0 0 0 1 .200 .200 .200 .400 1 0 0 0 0 0
2 outs, RISP 90 129 114 31 3 1 1 29 14 20 .272 .357 .342 .699 39 0 1 0 0 0
vs. Younger Pitchers 125 423 379 110 15 1 8 49 33 61 .290 .351 .398 .749 151 10 5 1 5 0
vs. Older Pitchers 69 140 126 42 14 3 3 30 12 21 .333 .393 .563 .956 71 3 1 0 1 0
Please note that splits include both major and minor league stats. We have decided that the splits across all levels is more useful than just minor league stats.

About the Minor League Data

Performance data on minor and international leagues is licensed from and provided by the SABR Minor Leagues Database, a community project sponsored by the Minor Leagues Committee of the Society for American Baseball Research.

The database is under active development. Many statistics are incomplete due to ongoing research and/or limitations in published sources. To learn more about these limitations, or to find out how to contribute, click here.

Minor league Total Zone (Rctch&Rtz, 2005-2009) data provided by Baseballprojection.com and Minorleaguesplits.com.